EPWREPKT

Guest
Details From EPWR - STRACHOWICE
To EPKT - PYRZOWICE
Flight Number -
Tags generated
Created
Modified
Stats Distance 91 nm / 169 km
Max Altitude 5,800 ft / 1,768 m
Waypoints 3
Social Downloads 3
Likes 0
Share VATSIM

Download

Looking for another format? Having issues loading an existing format? Contact us
Advertisement - Login to hide

Notes

Basic altitude profile: - Ascent Rate: 2500ft/min - Ascent Speed: 250kts - Cruise Altitude: 35000ft - Cruise Speed: 420kts - Descent Rate: 1500ft/min - Descent Speed: 250kts Options: - Use NATs: yes - Use PACOTS: yes - Use low airways: yes - Use high airways: yes

Route

EPWR SUDOL EPKT

ID Type Via Altitude Latitude Longitude Leg Dist Tot Dist Heading (true) Name
O EPWR APT - 0 ft / 0 m 51.10388˚ 16.88189˚ - 0 nm - STRACHOWICE
SUDOL FIX - 5,800 ft / 1,768 m 50.65333˚ 18.41167˚ 63 nm 63 nm 114° / 116° -
O EPKT APT - 0 ft / 0 m 50.47426˚ 19.07436˚ 27 nm 91 nm 113° / 113° PYRZOWICE

Altitude Profile

Advertisement - Login to hide

EPWR

Details ICAO EPWR (WRO)
Name STRACHOWICE
Region Poland
Timezone Europe/Warsaw (UTC+2.0)
Stats Elevation 404 ft / 123 m (AMSL)
Location 51.103882° 16.881892°
Runways 1
Magnetic Variation 4.668° E

METAR

EPWR 222130Z 05004KT CAVOK 18/09 Q1017

Decode

TAF

TAF EPWR 222030Z 2221/2321 06006KT CAVOK PROB40 TEMPO 2222/2304 TSRA BKN040CB PROB30 TEMPO 2310/2318 VRB15G25KT TSRA BKN035CB

Decode

Departure Runways

ID Width Length Bearing (true) Bearing (mag) Surface Threshold Offset Overrun Length
12 197 ft / 60 m 8,192 ft / 2,497 m 115.99° 111.32° Concrete 0 ft / 0 m 0 ft / 0 m
30 197 ft / 60 m 8,192 ft / 2,497 m 296.01° 291.34° Concrete 0 ft / 0 m 0 ft / 0 m

EPKT

Details ICAO EPKT (KTW)
Name PYRZOWICE
Region Poland
Timezone Europe/Warsaw (UTC+2.0)
Stats Elevation 995 ft / 303 m (AMSL)
Location 50.474263° 19.074356°
Runways 1
Magnetic Variation 5.139° E

METAR

EPKT 222130Z 08003KT CAVOK 13/10 Q1017

Decode

TAF

TAF EPKT 221730Z 2218/2318 VRB02KT CAVOK PROB30 TEMPO 2300/2306 4000 SHRA BKN040CB BECMG 2310/2313 08010KT TEMPO 2310/2318 VRB20G30KT TSRA BKN040CB

Decode

Destination Runways

ID Width Length Bearing (true) Bearing (mag) Surface Threshold Offset Overrun Length
09 195 ft / 59 m 9,156 ft / 2,791 m 90.18° 85.04° Concrete 0 ft / 0 m 0 ft / 0 m
27 195 ft / 59 m 9,156 ft / 2,791 m 270.22° 265.08° Concrete 0 ft / 0 m 0 ft / 0 m

Approach Navaids

Runway Type Ident Frequency Range Bearing (true) Bearing (mag) Slope Elevation
27 Localiser KAT 109.90 MHz 18 nm / 33 km 270.18° 265.04° - 995 ft / 303 m (AMSL)
27 Glidescope KAT 109.90 MHz 10 nm / 19 km 270.20° 265.06° 3.20° 995 ft / 303 m (AMSL)

Popular Alternatives